Location: Newark
(41.3833°N, 2.1669°E)
Time: 01:39:39
(UTC+00:00)

N. Korean satellite - Visible Passes

Search period start: 13 December 2019 00:00
Search period end: 23 December 2019 00:00
Orbit: 455 x 506 km, 97.2° (Epoch: 12 December)

Date Brightness Start Highest point End Pass type
(mag) Time Alt. Az. Time Alt. Az. Time Alt. Az.
13 Dec 8.0 05:20:43 10° NNE 05:24:01 39° E 05:27:16 10° SSE visible
13 Dec 8.7 17:29:10 10° SSW 17:32:30 31° W 17:35:50 10° NNW visible
14 Dec 9.4 04:55:56 10° NE 04:58:27 18° E 05:00:56 10° SE visible
14 Dec 7.6 06:28:58 10° NNW 06:31:49 24° WNW 06:34:37 10° SW visible
14 Dec 7.0 17:03:20 10° S 17:07:01 69° W 17:10:41 10° NNW visible
15 Dec 6.6 06:03:06 10° N 06:06:30 50° WNW 06:09:50 10° SSW visible
16 Dec 6.7 05:37:37 10° NNE 05:41:05 69° E 05:44:30 10° S visible
16 Dec 9.6 17:46:56 10° SW 17:49:39 19° W 17:52:22 10° NW visible
17 Dec 8.5 05:12:28 10° NNE 05:15:35 30° E 05:18:38 10° SSE visible
17 Dec 8.2 17:20:38 10° S 17:24:06 39° W 17:27:34 10° NNW visible
18 Dec 9.7 04:47:59 10° ENE 04:49:58 15° E 04:51:57 10° SE visible
18 Dec 7.3 06:20:24 10° N 06:23:27 29° WNW 06:26:28 10° SW visible
18 Dec 6.6 16:54:58 10° SSE 16:58:38 88° W 17:02:17 10° NNW visible
19 Dec 6.3 05:54:39 10° N 05:58:06 66° WNW 06:01:30 10° SSW visible
19 Dec 10.1 18:05:21 10° WSW 18:06:49 12° W 18:08:18 10° WNW visible
20 Dec 7.3 05:29:16 10° NNE 05:32:39 52° E 05:36:00 10° S visible
20 Dec 9.2 17:38:12 10° SSW 17:41:13 24° W 17:44:13 10° NW visible
21 Dec 8.9 05:04:16 10° NE 05:07:07 23° E 05:09:55 10° SSE visible
21 Dec 7.9 06:37:54 10° NNW 06:40:21 18° WNW 06:42:47 10° WSW visible
21 Dec 7.6 17:12:07 10° S 17:15:42 50° W 17:19:14 10° NNW visible
22 Dec 10.0 04:40:18 10° ENE 04:41:29 11° E 04:42:39 10° ESE visible
22 Dec 6.9 06:11:51 10° N 06:15:04 37° WNW 06:18:14 10° SW visible
